sat.trackr.live / text

‹ back to catalog

STARLINK-31528

NORAD 59010 · 2024-036N

PAYLOAD ACTIVE UNKNOWN

§ Identity

Operator
Country
US
Launch date
2024-02-23
Launch site
AFWTR
Launch vehicle
Mass (kg)
RCS (m²)

Purposes: comms

External: N2YO · Heavens-Above · Gunter

§ Orbital elements

Epoch: 2026-05-25T03:27:59.360256Z

Period
94.11 min
Inclination
53.1615°
Eccentricity
0.0001498
Mean motion
15.30170150 rev/d
Perigee alt
474.3 km
Apogee alt
476.3 km
Semi-major
6,853.4 km
B*
-6.3172e-5
RAAN
83.3713°
Arg perigee
92.2366°
Mean anomaly
267.8807°
Rev number
12,702

§ Raw data

STARLINK-315281 59010U 24036N   26145.14443704 -.00002228  00000+0 -63172-4 0  99932 59010  53.1615  83.3713 0001498  92.2366 267.8807 15.30170150127026

JSON: /api/v1/satellites/59010 · /tle

For live sub-satellite position, see the globe view (requires WebGL).

§ Visibility from observer

Set your observer location to see the next 7 days of passes ≥ 10°. The values pass through the URL so the page stays shareable.

No JS? Fill the form by hand. The geolocation button needs JavaScript.